THOR ABLESTAR DEB, 225

Orbit data source: Space-Track

THOR ABLESTAR DEB, 225 is space debris in LEO originally from a launch on Thu, 29 Jun 1961 UTC launched from the Air Force Eastern Test Range (AFETR). Debris objects in space refer to the collection of defunct objects orbiting the Earth. Examples of debris include non-operational satellites, rocket bodies, and fragments generated from explosions, collisions, or faulty payload assembly.

Loading next visibility...
Identifier
225, 1961-015BM
Orbit
LEO
Country
Flag of USUS
Related business
Manufacturer
Unknown
Mission
Spacecraft
Bus & Motor
Unknown
Mass
Unknown
Launch date (UTC)
1961-06-29 (65 years ago)
Launch vehicle
Unknown
Launch site
Air Force Eastern Test Range (AFETR)
Object type
Payload
Rocket body
Debris
Shape & HBR
Unknown shape, 0.1 m
Radar Cross Section
Small (<0.1 m²)

Expand to show TLE details & history
Last TLE update: 14 hours ago

TLE from 14 hours ago
0 THOR ABLESTAR DEB
1 00225U 61015BM  26015.78135279  .00000974  00000-0  32978-3 0  9990
2 00225  66.7972 289.9206 0103529 328.4333  31.0585 14.38075638335817
Epoch: 2026-01-15T18:45Z
TLE epoch observation values (Epoch: 2026-01-15T18:45:08.881Z)
Latitude
0.00004°
Longitude
-106.59645°
Altitude
703.837 km
Speed
7.537 km/s
True Right ascension
19h 19m 40s
True Declination
0° 00' 00"
Sunlit
Object was in daylight at epoch
Visualization orbit readout
Latitude
Unknown
Longitude
Unknown
Altitude
Unknown
Speed
Unknown
Apparent Right ascension
Unknown
Apparent Declination
Unknown
Sunlit
N/A
Visualization observer readout
Local Sidereal Time
09:22:15
Azimuth
Unknown
Elevation
Unknown
Doppler factor
Unknown
Orbital elements
Apogee altitude
837.155 km
Perigee altitude
689.287 km
Semi-major axis
7,141.358 km
Eccentricity
0.01035
Inclination
66.7972°
RAAN
289.9206°
Arg. of periapsis
328.4333°
True anomaly
31.6774°
Mean anomaly
31.0585°
Eccentric anomaly
31.36726°
Mean motion
3.59643 °/min
Orbital period
100.1 mins
BSTAR
0.00032978
Loading maneuver chart data...
Computing Atmospheric mass density...

Documentation

Showing up to 5 results
|